Flag for Congo Dem.Rep. Weather past 2 weeks in Kinshasa, Congo Dem.Rep.

Now
90 °F

Scattered clouds.


Feels Like: 92 °F
Forecast: 72 / 92 °F
Wind: 5 mph from West

Location: Brazzaville / Maya-Maya

Current Time: Aug 29, 2014 at 6:05:45 PM

Latest Report: Aug 29, 2014 at 5:00 PM


Visibility: 5 mi

Pressure: 29.83 "Hg

Humidity: 46%

Dew point: 66 °F

Location of KinshasaLocation

Historic Weather in Kinshasa — Graph

°F

Kinshasa temperature yesterday

Maximum temperature yesterday: 84 °F (at 3:00 PM)
Minimum temperature yesterday: 68 °F (at 4:00 AM)
Average temperature yesterday: 75 °F

Past Weeks' High & Low Weather Summary

 TemperatureHumidityPressure
High91 °F (Aug 26, 3:00 PM)94% (Aug 16, 9:00 AM)30.07 "Hg (Aug 16, 9:00 AM)
Low66 °F (Aug 21, 5:00 AM)41% (Aug 26, 3:00 PM)29.80 "Hg (Aug 26, 4:00 PM)
Average77 °F70%29.97 "Hg
* Reported Aug 14 5:00 PM — Aug 29 5:00 PM, Kinshasa, Weather by CustomWeather, © 2014

Note: Actual official high and low records may vary slightly from our data, if they occured in-between our weather recording intervals... More about our weather records

Advertising

Kinshasa weather history for previous 24 hours

 ConditionsComfort  
Time TempWeatherWind HumidityBarometerVisibility
5:00 PM
Aug 29
90 °FScattered clouds.5 mph46%29.83 "Hg5 mi
4:00 PM91 °FPassing clouds.6 mph44%29.83 "Hg5 mi
3:00 PM91 °FPassing clouds.6 mph44%29.83 "Hg5 mi
2:00 PM90 °FPassing clouds.6 mph43%29.86 "HgN/A
1:00 PM88 °FPassing clouds.5 mph49%29.89 "HgN/A
12:00 PM84 °FPassing clouds.7 mph55%29.95 "HgN/A
11:00 AM81 °FPassing clouds.6 mph58%30.01 "HgN/A
10:00 AM77 °FPartly sunny.9 mph65%30.01 "Hg6 mi
9:00 AM75 °FPartly sunny.8 mph74%30.04 "Hg5 mi
8:00 AM73 °FPartly sunny.3 mph78%30.01 "Hg5 mi
7:00 AM72 °FPartly sunny.5 mph78%30.01 "Hg5 mi
6:00 AM72 °FMostly cloudy.5 mph78%29.98 "Hg5 mi
5:00 AM72 °FPassing clouds.6 mph78%29.95 "Hg5 mi
4:00 AM72 °FPassing clouds.2 mph78%29.95 "Hg5 mi
3:00 AM72 °FPassing clouds.2 mph78%29.92 "Hg5 mi
2:00 AM72 °FPassing clouds.3 mph78%29.92 "Hg5 mi
1:00 AM72 °FPassing clouds.6 mph78%29.92 "Hg5 mi
12:00 AM73 °FPassing clouds.5 mph78%29.92 "Hg5 mi
11:00 PM
Aug 28
73 °FClear.7 mph74%29.95 "Hg5 mi
10:00 PM75 °FClear.7 mph74%29.95 "Hg5 mi
9:00 PM77 °FClear.6 mph69%29.92 "Hg5 mi
8:00 PM79 °FClear.6 mph70%29.89 "Hg5 mi
7:00 PM79 °FClear.3 mph70%29.89 "Hg5 mi
6:00 PM81 °FPassing clouds.6 mph66%29.89 "HgN/A
Weather by CustomWeather, © 2014

See weather overviewHow to use our weather pages